User: anonymous   Login
Location: Hopkins Observatory
(42.6965°N, 73.1843°W)
Time: 07:17:24
(UTC-04:00)
Language:

UOSAT-12 - Orbit

View from above orbital plane
View from above orbital plane
View from above satellite
View from above satellite

Ground track
Ground track

The orbit data is extracted from the following two-line orbital elements,

1 25693U 99021A   14296.80259962  .00000930  00000-0  13896-3 0  6426
2 25693 064.5571 226.2961 0049801 271.6153 122.7424 14.80095970836956
Epoch (UTC): 23 October 2014 19:15:44
Eccentricity: 0.0049801
inclination: 64.5571°
perigee height: 594 km
apogee height: 664 km
right ascension of ascending node: 226.2961°
argument of perigee: 271.6153°
revolutions per day: 14.80095970
mean anomaly at epoch: 122.7424°
orbit number at epoch: 83695

The dashed part of the orbit path shows where the satellite is in the earth's shadow,  

DLR